Погода в Космынине

Россия / Костромская область     57°34′59″N   40°45′47″E
темп.,
°C
ветер,
м/с
пор.,
м/с
влажн.,
%
обл.,
%
осадки,
мм/ч
давл.,
гПа
погр.,
м
15 апреля, чт
чт1500:00+11ююз3563100 0.0 101859
03:00+9сз1169100 0.0 101810
06:00+8ссв3790100 0.0 1019137
09:00+11св5686100 0.0 1019424
12:00+12ссв677698 0.0 1020642
15:00+12св7871100 0.0 1021817
18:00+10св71076100 0.0 1022790
21:00+7всв61480100 0.0 1024580
16 апреля, пт
пт1600:00+6всв61477100 0.0 1025553
03:00+5всв61481100 0.0 1025526
06:00+4всв61383100 0.0 1026491
09:00+6всв61066100 0.0 1027571
12:00+10всв795485 0.0 1027901
15:00+12всв784626 0.0 10271102
18:00+11всв694544 0.0 1027848
21:00+7всв5126051 0.0 1028377
17 апреля, сб
сб1700:00+5всв512719 0.0 1029343
03:00+3всв5127662 0.0 1029287
06:00+2всв5127745 0.0 1030315
09:00+7в610535 0.0 1030627
12:00+11всв68395 0.0 10291165
15:00+12всв67375 0.0 10281382
18:00+11всв48460 0.0 1028446
21:00+6св410650 0.0 1028190
18 апреля, вс
вс1800:00+4всв410730 0.0 1028191
03:00+3всв39800 0.0 1029176
06:00+2всв310825 0.0 1029216
09:00+8всв58565 0.0 1028635
12:00+11всв5742100 0.0 10281393
15:00+11всв5744100 0.0 10281441
18:00+10св4856100 0.0 1028495
21:00+6всв5107299 0.0 1030609
19 апреля, пн
пн1900:00+4всв41072100 0.0 1030468
03:00+2всв4107595 0.0 1031308
06:00+1всв410716 0.0 1032353
09:00+5в69485 0.0 1033825
12:00+7в67370 0.0 10331547
15:00+8в67330 0.0 10331758
18:00+7в46390 0.0 10331245
21:00+3в36571 0.0 1034108